Wind_Speed
20 20 20 19 19 20 21 21 23 24 22 24 24 24 26 23 25 27 23 27 34 32 31 30 27 27 27 29 36 33 26 26 27 25 24 23 24 24 24 25 24 24 22 20 19 20 22 24 25 24 23 23 26 26 23 21 22 23 23 22 22 22 20 19 18 18 18 17 17 17 17 17 17 16 15 14 14 14 15 16 16 17 16 14 13 12
19 20 19 19 21 22 22 22 25 27 25 25 27 26 27 26 21 20 25 34 37 30 29 29 27 30 26 24 33 33 27 27 26 27 26 24 25 25 25 26 24 24 22 20 20 23 27 30 28 24 21 22 25 25 22 22 23 23 21 20 21 22 20 17 17 18 18 16 16 17 16 16 15 14 14 14 14 15 17 18 18 18 16 15 13 13
19 20 19 20 23 21 20 20 21 21 19 20 23 25 27 27 22 18 27 38 35 25 26 29 30 30 25 25 30 29 26 27 27 28 27 25 26 26 26 26 25 24 22 21 23 27 32 32 27 23 20 21 24 26 23 21 20 18 19 19 20 22 20 18 18 20 21 17 16 16 15 14 14 14 14 15 16 17 18 18 18 18 17 15 14 14
19 18 20 22 22 18 17 18 18 19 19 19 20 22 24 24 24 21 24 31 33 27 25 29 31 28 26 30 31 26 26 28 27 28 27 26 26 26 26 25 24 22 21 23 27 32 34 29 23 20 20 21 24 24 20 17 16 16 19 19 19 21 20 20 21 21 20 17 15 14 13 12 13 13 14 15 15 16 17 18 18 18 16 15 15 14
18 20 23 23 19 16 17 17 17 17 17 18 19 22 23 20 21 23 23 25 29 29 27 28 28 26 29 31 30 28 27 27 26 26 26 25 26 25 23 22 20 19 21 26 32 33 30 24 20 19 18 19 24 23 17 16 19 20 21 22 21 21 20 19 20 22 19 15 14 12 11 10 11 13 14 15 15 15 16 17 18 18 16 16 15 15
21 23 23 20 16 16 17 16 16 16 16 18 19 21 23 19 17 24 29 26 21 22 25 27 24 23 27 27 27 28 27 27 26 25 25 25 25 23 21 19 18 19 24 30 33 30 23 18 16 18 18 18 21 22 17 15 20 23 24 24 23 23 24 22 22 24 20 15 14 13 12 11 11 13 15 16 16 16 16 18 18 18 17 16 16 15
23 23 19 18 17 17 16 16 15 15 15 16 17 20 23 23 19 21 27 25 18 17 20 24 23 20 23 25 25 27 26 24 24 24 25 24 24 22 20 19 20 23 28 31 30 24 19 16 13 11 13 15 19 20 16 16 21 25 26 26 26 24 26 26 23 22 19 15 15 15 14 15 15 15 16 17 17 17 17 18 18 18 18 17 16 15
24 20 17 19 18 16 16 15 15 15 15 15 16 20 24 25 22 19 20 20 19 19 19 22 21 19 21 22 21 23 23 21 22 24 24 23 23 22 21 21 23 27 30 29 25 19 17 19 16 11 10 13 18 18 18 21 24 24 23 24 25 23 23 25 23 19 15 14 15 16 16 17 16 16 17 18 18 18 19 19 19 19 19 18 16 14
23 20 19 19 18 16 14 15 16 15 16 16 17 19 22 23 22 19 18 17 18 20 17 18 20 21 19 20 20 20 20 21 22 23 23 22 21 20 21 21 24 30 29 25 22 18 16 19 19 17 14 13 14 15 18 22 21 18 18 19 19 20 20 22 23 22 19 18 18 17 16 15 15 16 17 17 18 19 20 20 19 20 19 18 16 14
23 22 21 19 17 16 16 18 18 16 18 19 16 16 18 20 20 19 19 18 19 20 17 16 20 20 15 19 22 19 19 21 22 24 24 22 20 20 21 21 25 30 26 19 18 17 17 18 18 16 16 15 14 14 15 17 15 14 15 17 19 20 19 21 23 24 25 25 23 21 19 17 16 17 17 18 19 19 20 21 21 21 19 17 15 14
22 22 21 19 19 19 19 19 17 18 19 18 15 15 16 17 18 17 17 18 19 20 18 16 18 18 17 22 23 19 21 23 23 24 23 20 19 20 22 23 26 28 23 17 15 15 15 16 17 15 15 16 17 17 15 13 14 15 14 17 20 22 21 22 24 25 26 26 25 24 23 22 19 18 18 19 19 20 21 21 21 21 19 17 16 14
21 20 20 20 20 20 18 16 16 18 18 16 15 14 14 15 16 16 16 19 20 19 17 16 18 21 21 21 20 22 26 24 22 22 19 18 19 20 21 23 24 23 20 15 13 15 16 15 16 15 16 17 17 18 16 14 14 15 16 17 20 22 23 22 21 24 25 23 24 25 25 25 23 20 19 20 20 21 21 21 21 21 19 18 16 14
21 21 20 19 20 19 17 16 17 18 17 17 16 15 15 15 16 16 17 19 19 16 16 16 18 21 21 22 25 26 24 21 20 19 17 18 20 20 21 23 22 19 18 16 14 15 18 17 17 18 19 19 17 17 18 17 15 15 16 17 17 19 22 23 21 23 24 22 23 25 25 25 25 22 20 20 22 22 22 22 22 21 20 19 17 15
22 21 21 20 20 19 18 17 17 17 17 16 16 16 16 17 17 17 17 17 16 15 17 18 19 20 22 27 30 26 19 17 19 19 18 19 20 22 23 23 22 19 17 17 17 18 21 21 20 20 21 20 19 18 19 19 18 17 17 18 17 15 18 23 25 26 27 25 24 24 24 23 24 26 24 21 21 23 23 23 22 21 20 19 17 16
23 23 22 21 19 19 18 18 17 17 17 16 16 17 18 18 18 16 15 16 14 15 18 21 22 20 22 27 28 24 22 21 20 19 20 22 22 23 23 21 20 19 18 18 20 22 24 24 24 23 22 21 20 20 20 20 20 20 20 20 20 19 19 23 26 28 30 29 24 23 24 24 23 27 29 25 22 23 23 23 22 21 20 18 17 16
23 22 22 21 21 21 20 18 19 18 16 17 17 18 18 18 17 16 17 19 18 17 19 22 22 20 24 28 26 23 24 24 24 23 23 23 23 24 25 24 23 22 22 22 23 24 25 25 26 25 24 24 23 22 22 22 21 21 21 23 23 23 23 24 25 28 30 30 28 26 26 25 23 26 29 27 23 22 22 22 22 21 19 17 16 16
24 19 20 23 24 23 20 19 21 19 17 19 19 19 18 18 18 17 18 20 21 20 18 20 20 20 25 27 25 25 25 25 27 27 26 26 26 28 28 28 27 25 25 26 25 26 26 27 27 27 28 27 26 25 24 24 25 24 24 24 25 25 25 25 26 27 28 30 30 29 27 25 24 26 28 25 21 20 20 19 19 19 18 17 16 16
24 20 21 26 24 21 22 22 23 23 22 21 19 19 20 21 22 21 17 17 20 21 19 20 20 19 21 24 26 27 25 26 28 28 29 29 29 30 30 30 30 28 27 28 27 28 28 29 29 30 31 30 29 28 26 26 28 29 29 27 27 28 28 27 27 27 27 30 32 31 28 26 27 28 27 24 22 22 21 20 19 18 18 16 15 15
27 24 23 26 23 22 25 24 24 25 25 22 18 20 22 21 22 23 22 21 21 21 20 21 23 21 20 23 27 25 24 27 30 30 30 31 32 32 31 31 31 30 29 29 30 31 30 31 32 32 33 33 32 31 29 27 26 28 30 31 33 34 33 29 28 28 27 29 31 30 29 29 29 28 27 25 24 23 23 22 20 19 17 16 16 16
30 26 24 24 21 22 27 28 27 26 25 26 25 23 23 23 22 22 23 23 21 21 20 19 21 20 20 24 26 27 27 28 29 31 32 33 33 33 32 32 33 32 31 31 32 33 32 32 33 33 33 33 32 31 29 28 26 26 27 30 32 33 32 30 27 27 26 27 29 28 28 29 27 24 25 25 24 23 23 22 21 20 19 18 18 18
29 27 27 26 23 24 27 26 25 23 22 26 27 24 24 24 25 24 23 22 21 20 19 18 18 20 22 24 26 28 28 26 26 29 31 32 33 32 32 33 33 33 32 31 32 33 32 32 32 32 32 31 29 28 27 26 25 25 25 26 26 25 25 28 29 29 26 24 25 25 25 26 24 24 25 25 24 23 23 22 21 20 20 20 20 20
28 29 29 28 26 25 23 22 23 23 22 24 25 24 24 24 26 27 25 23 22 20 19 17 18 22 25 25 26 27 26 24 24 25 26 28 29 29 30 31 30 30 29 29 30 30 30 31 31 31 31 29 28 27 24 24 24 24 24 24 24 22 21 23 26 30 29 24 22 23 23 24 24 24 24 24 24 24 24 24 24 23 23 23 22 22
27 28 28 28 28 24 23 25 26 24 24 25 24 23 24 25 27 27 25 24 23 23 24 20 19 23 25 24 25 26 25 27 26 24 24 26 27 26 27 27 27 27 27 28 28 28 29 29 29 30 29 29 28 25 22 21 21 22 22 22 23 23 22 20 20 22 25 23 23 24 25 26 26 25 25 26 26 26 26 26 26 25 25 25 24 24
22 25 26 28 30 27 26 27 26 23 24 27 26 24 24 26 26 24 24 25 24 24 24 22 23 27 27 23 23 24 26 28 26 24 25 26 26 26 26 25 25 25 25 24 24 24 24 24 25 25 26 26 26 23 20 18 17 17 18 18 18 18 17 16 15 16 17 19 21 23 24 25 25 24 25 26 27 27 28 28 28 28 27 26 26 26
24 26 26 27 29 29 27 27 25 24 24 26 26 26 26 27 26 25 26 27 26 25 24 23 24 28 27 24 23 24 26 26 25 26 26 26 25 24 23 23 23 22 22 22 21 21 21 21 21 21 22 23 23 22 19 17 15 14 14 13 13 12 11 11 12 13 15 17 18 20 22 24 24 24 25 27 27 27 28 29 29 29 28 27 26 26
29 30 30 30 32 32 30 27 26 27 28 28 28 30 30 29 29 30 31 29 28 27 27 26 25 26 26 25 24 24 24 24 24 25 25 24 24 24 23 23 22 21 21 21 20 20 20 19 19 19 19 20 20 19 18 17 15 14 12 11 10 10 10 10 10 12 14 16 18 21 23 25 26 26 27 27 27 28 30 30 29 28 27 27 26 26
30 31 32 33 33 34 34 30 29 31 31 28 29 33 32 29 30 32 32 31 30 30 30 29 28 27 26 25 25 25 26 24 24 23 23 23 24 23 23 22 22 22 22 21 21 20 20 20 19 19 18 19 19 18 18 17 16 15 13 11 10 10 10 10 10 10 11 13 17 20 22 23 24 25 26 26 27 28 28 27 26 27 28 28 27 26
29 30 31 31 32 33 34 34 32 33 31 28 31 36 34 31 31 32 32 32 32 32 32 31 31 32 30 27 26 26 27 26 24 24 24 25 25 24 23 22 22 22 21 21 21 21 21 20 19 19 19 19 19 19 18 17 16 15 14 12 11 11 10 9 9 9 9 11 14 16 18 20 21 22 23 24 26 26 24 23 23 24 26 29 29 29
28 29 29 29 30 31 32 34 34 34 36 36 36 36 34 32 32 32 33 32 32 33 34 33 32 31 30 30 28 26 26 25 23 23 25 26 26 25 25 24 24 23 22 22 22 22 21 21 21 21 21 21 21 20 19 18 17 16 15 14 13 12 12 11 11 11 12 13 14 16 18 20 21 22 22 23 26 28 26 25 24 23 24 27 28 29
28 30 30 29 30 30 30 33 32 33 37 41 41 39 36 35 35 34 34 33 33 34 36 35 34 30 28 28 29 27 26 24 23 24 25 26 25 25 26 26 26 26 25 25 25 24 24 23 23 23 23 24 24 23 22 21 20 17 16 16 15 15 15 15 16 16 17 18 19 20 21 22 22 21 21 21 25 27 27 26 26 26 27 26 25 25
28 29 28 28 29 29 29 30 31 31 33 38 42 44 41 38 37 36 35 35 35 36 36 37 37 35 30 27 27 27 27 27 27 28 28 28 28 27 27 27 27 28 28 28 28 28 27 27 26 26 26 26 26 27 26 26 24 21 20 19 18 18 19 20 20 21 22 23 23 24 26 27 26 25 24 25 26 27 28 27 28 30 31 29 28 28
29 29 27 27 28 28 27 28 30 31 31 33 39 45 45 42 39 39 38 37 37 37 37 38 38 38 36 32 29 27 27 28 28 29 29 31 32 32 31 31 31 31 31 31 31 31 30 30 29 28 28 28 29 29 29 29 27 26 25 23 22 22 22 23 23 24 25 26 26 27 28 29 29 29 30 30 30 30 31 31 31 32 33 33 34 34
30 31 29 28 27 26 26 26 28 29 29 30 33 41 47 46 42 41 41 40 39 39 39 39 39 39 38 37 35 31 29 29 30 30 31 32 33 34 34 35 35 34 34 35 36 35 34 33 33 33 32 32 32 32 32 31 30 29 28 27 27 27 26 26 26 27 28 29 29 30 31 31 32 32 33 34 33 34 35 35 35 36 37 37 36 35
29 30 29 29 28 26 26 25 26 27 27 26 25 30 39 44 44 43 43 43 43 42 42 42 41 40 39 38 37 35 34 34 34 34 35 36 36 37 38 39 39 38 37 37 37 36 36 35 35 35 34 34 34 34 34 33 32 32 31 30 30 30 30 31 31 32 32 32 33 34 35 35 36 36 37 37 37 38 39 39 39 41 42 41 40 39
31 29 28 30 30 28 27 26 26 26 25 23 22 23 27 33 37 39 40 41 43 44 45 45 44 43 42 41 40 39 40 40 40 38 37 37 38 39 40 40 40 40 40 39 38 38 37 37 37 36 36 36 36 36 35 35 35 34 33 33 34 34 35 36 37 37 38 38 38 38 39 40 40 40 41 41 41 42 43 43 44 45 45 45 46 47
32 29 27 29 30 29 28 27 26 26 24 22 23 24 23 23 25 29 32 34 37 40 43 44 45 45 44 43 43 42 42 42 43 42 41 39 38 38 37 36 35 35 35 36 38 39 40 40 39 39 39 39 38 38 38 37 37 36 36 36 37 38 39 40 41 42 42 42 42 42 41 42 42 42 43 44 45 45 46 47 48 48 49 49 50 50
31 29 27 28 29 27 26 27 27 25 24 23 24 24 24 23 22 23 25 27 29 32 35 38 39 40 42 43 43 42 41 40 41 42 43 43 43 42 41 39 38 36 33 31 31 33 34 35 36 38 41 42 41 40 40 40 40 39 39 39 39 39 39 40 40 40 40 41 41 40 40 40 39 40 40 42 43 44 45 47 47 48 48 48 47 46
29 29 28 29 30 26 24 27 27 25 25 26 25 25 25 25 25 24 24 24 26 27 28 29 30 31 33 36 39 41 41 39 39 41 41 43 45 45 45 46 46 46 44 41 38 36 35 34 35 36 38 40 39 38 38 38 38 36 35 34 34 34 34 33 32 32 32 32 32 33 34 34 36 37 38 40 41 41 42 43 44 45 45 45 45 45
30 30 29 28 28 26 26 27 26 24 25 25 24 24 25 25 26 26 25 26 27 27 27 26 26 26 27 28 31 34 35 37 39 39 40 41 43 44 45 47 48 50 50 47 46 44 40 37 37 37 37 37 36 36 36 36 36 35 34 33 33 33 33 32 31 32 31 32 32 34 35 35 36 38 39 39 40 40 40 41 42 43 43 44 45 45
31 31 30 28 27 27 27 27 27 26 27 26 24 25 25 25 25 25 25 26 26 26 27 28 28 28 27 28 29 30 31 34 35 33 32 35 37 39 41 43 45 47 48 46 45 43 40 38 38 38 39 40 39 39 39 39 38 39 40 41 41 42 43 43 44 45 46 47 47 47 47 46 46 47 47 47 47 46 46 46 46 46 46 46 46 46
29 30 30 29 29 29 27 28 29 30 30 29 28 28 28 28 28 28 29 28 26 25 27 28 28 29 29 31 32 32 32 33 33 31 31 33 36 37 38 40 41 43 44 44 44 43 43 44 45 44 45 46 45 45 46 46 46 47 48 49 50 50 52 53 54 56 57 57 57 56 55 53 52 52 53 53 53 53 52 52 51 51 50 50 49 49
27 28 28 29 30 28 27 29 32 32 31 30 30 30 29 30 31 32 32 32 30 31 31 32 32 33 33 34 35 34 35 35 36 36 35 36 38 38 39 40 41 42 43 44 45 45 46 48 50 51 52 52 52 53 53 54 55 56 56 57 57 56 57 58 58 58 58 58 58 57 56 54 53 52 52 52 54 54 54 53 54 54 53 53 53 53
28 28 27 28 29 29 28 30 33 33 32 32 31 30 30 30 31 31 32 33 33 34 35 36 37 38 38 38 38 38 39 39 39 39 40 40 41 42 42 43 44 44 45 46 47 48 49 50 51 52 54 54 55 55 56 56 57 58 58 58 58 58 58 58 58 58 58 58 58 58 57 56 55 54 53 53 53 54 54 54 54 54 54 54 55 56
30 30 28 27 28 29 30 32 33 33 33 34 34 33 32 32 32 33 35 36 36 36 36 38 39 40 40 41 40 40 41 41 41 42 42 42 43 43 44 45 46 46 47 48 48 49 50 52 52 53 54 55 56 57 57 58 58 58 59 59 59 58 58 59 59 59 59 59 59 59 59 58 57 57 56 55 55 55 55 54 54 54 54 54 53 53
32 33 34 32 32 32 32 32 33 33 34 35 36 36 36 36 37 38 39 40 39 39 39 40 40 41 42 43 43 43 43 44 44 44 44 45 45 45 46 46 47 48 48 49 50 51 52 53 54 54 55 56 57 58 59 59 60 60 61 61 61 61 61 62 62 61 61 61 61 61 61 60 60 60 59 58 57 57 57 56 56 55 54 52 50 50
31 34 35 35 36 37 37 36 36 35 35 36 36 37 38 39 39 40 41 42 42 42 43 43 43 44 45 45 45 45 45 46 46 46 46 46 46 47 47 48 48 49 50 51 51 52 53 54 55 56 57 57 58 59 60 61 62 62 63 64 64 65 65 65 65 64 63 63 63 62 61 61 60 60 59 58 57 56 56 55 55 54 51 48 48 49
26 30 30 29 30 34 36 37 38 38 38 38 38 38 39 39 39 40 40 41 41 42 42 42 43 44 44 45 45 45 45 46 46 46 47 47 47 48 48 49 49 50 51 52 52 53 54 55 56 57 58 58 59 60 61 62 62 63 64 64 64 64 64 64 64 63 62 61 60 60 59 59 59 58 58 57 56 55 55 54 55 55 53 52 53 52
22 24 24 23 25 27 30 33 35 36 38 38 38 39 39 39 39 39 39 39 40 40 40 40 41 41 42 42 43 43 44 44 44 45 46 46 47 47 47 48 49 49 50 51 52 52 53 55 55 56 57 58 59 59 60 61 62 62 63 63 63 63 63 63 62 61 61 60 60 60 60 59 59 58 58 58 57 57 58 58 60 61 58 56 56 54
19 18 18 19 22 24 27 29 32 34 35 36 37 37 37 38 38 38 38 38 38 38 38 39 39 39 40 40 41 41 42 42 42 43 44 45 45 46 46 47 48 48 49 50 51 52 52 53 54 55 56 56 57 58 59 59 60 60 61 61 61 61 61 62 62 61 61 61 61 61 61 61 62 61 61 61 61 62 63 65 67 66 63 61 60 59
15 13 14 15 17 20 23 25 28 29 31 32 34 35 35 36 36 36 36 37 37 37 37 38 38 38 39 39 40 41 41 41 41 41 41 42 43 43 44 44 45 46 47 47 48 49 50 51 51 52 52 53 54 55 56 57 57 58 59 59 60 60 61 62 62 62 62 62 62 63 63 64 64 64 65 66 67 69 70 70 68 66 65 63 62 61
13 12 12 13 14 17 19 21 23 24 25 27 29 29 30 32 33 34 34 34 34 35 35 36 36 37 37 38 39 40 40 40 40 41 42 43 43 44 44 45 46 47 47 48 49 50 50 51 52 52 53 54 55 56 57 58 59 60 61 62 63 64 65 65 65 65 65 65 65 66 67 68 69 70 72 72 73 72 70 68 66 64 63 63 62 60
Wind_Direction
231 231 231 230 231 229 226 222 212 206 214 215 211 218 211 211 226 213 212 240 235 225 229 232 233 233 227 236 250 247 239 240 242 245 243 240 243 244 245 247 248 253 255 256 256 256 255 249 242 238 236 236 244 250 251 249 248 253 253 244 239 232 229 232 232 231 231 233 234 229 226 228 231 234 237 241 245 250 255 258 261 262 265 268 272 276
230 231 230 227 228 226 222 221 222 223 226 220 212 213 210 206 219 220 217 238 242 229 230 237 235 237 232 232 248 247 239 242 244 246 246 242 244 246 248 249 248 251 253 254 255 254 252 248 244 243 242 242 248 254 254 250 252 256 251 243 238 232 233 239 239 231 222 225 228 222 223 226 227 232 236 242 249 254 257 259 260 262 265 268 271 272
229 231 230 229 230 229 226 227 230 229 226 224 220 214 212 209 206 210 220 233 242 235 232 240 238 238 232 226 240 245 241 243 244 246 248 247 248 249 249 250 249 249 251 253 253 252 251 249 247 247 246 245 249 254 255 254 258 252 236 238 241 234 234 240 242 232 219 219 222 218 220 225 229 236 242 247 253 255 258 260 261 263 264 265 266 265
228 230 230 231 232 230 230 230 228 226 220 217 217 212 211 211 205 214 236 239 240 239 234 239 242 238 230 230 241 248 244 244 244 245 248 248 250 251 249 250 247 246 249 251 251 250 252 251 249 252 253 251 253 257 257 258 261 248 232 239 241 233 236 240 233 219 210 217 221 218 223 231 240 246 248 249 250 252 255 258 259 259 259 258 258 257
224 227 227 231 232 230 230 230 227 226 222 216 214 211 205 206 209 218 241 244 235 236 234 238 245 241 237 240 245 246 243 243 243 244 246 246 247 247 246 245 241 241 243 245 248 250 253 253 250 254 257 257 261 260 256 251 249 244 240 242 237 236 244 247 230 211 210 225 223 220 226 236 251 256 253 249 247 250 252 254 256 255 254 252 251 253
224 230 230 232 232 230 229 228 227 224 221 216 213 212 203 202 214 219 229 238 234 235 236 237 241 242 244 244 242 244 242 239 239 240 241 241 241 241 240 236 229 231 234 239 246 250 251 250 248 251 250 253 261 256 245 239 238 241 242 236 229 231 236 239 233 219 219 229 222 218 224 236 260 265 257 253 252 253 251 250 252 251 251 249 249 251
226 231 229 231 230 228 228 226 226 222 219 216 212 214 208 205 215 222 226 233 234 232 231 230 226 231 246 245 237 240 239 236 236 238 239 238 238 235 230 225 220 224 230 236 245 250 252 256 256 259 256 255 260 255 243 234 234 238 238 233 227 225 229 234 231 221 221 229 226 225 233 246 261 262 256 256 256 256 254 250 249 249 249 249 248 251
229 232 227 228 226 224 227 225 225 220 214 213 209 210 213 216 224 229 225 225 229 230 228 228 217 215 239 247 241 238 236 235 235 236 237 234 233 230 223 220 219 225 230 234 244 252 258 261 255 254 266 265 260 258 251 243 238 237 234 232 230 226 232 233 226 224 230 235 237 242 248 254 258 256 254 255 256 256 254 250 248 247 248 249 251 255
230 230 225 223 221 220 222 222 221 214 210 213 210 205 212 222 229 228 222 219 228 230 229 230 218 210 226 235 233 235 233 233 235 235 234 229 225 224 221 220 225 232 232 233 245 253 255 259 254 249 254 263 258 257 259 251 243 240 233 232 235 235 240 237 233 240 244 242 245 247 250 258 259 255 255 257 258 257 254 251 248 247 249 253 256 260
227 225 222 218 214 212 217 221 216 209 212 216 213 209 214 222 226 224 220 219 226 228 225 225 220 213 222 232 232 235 233 231 235 236 234 228 220 215 216 220 232 237 233 234 247 252 252 256 257 251 249 256 259 261 269 260 254 262 250 241 247 248 247 246 243 243 241 240 244 244 247 258 261 257 256 257 259 258 254 253 251 251 254 257 259 264
228 226 223 216 211 210 216 221 214 208 215 218 214 216 222 225 227 226 222 222 228 229 221 218 220 210 216 240 247 243 234 229 233 237 236 234 228 218 211 216 233 239 234 237 249 250 252 254 253 252 250 256 259 259 265 265 272 285 273 257 259 257 252 250 246 240 236 236 242 247 250 255 259 258 255 255 257 256 255 254 254 255 258 259 260 266
231 232 228 219 217 218 221 222 214 213 217 218 215 216 221 223 225 226 223 223 227 229 219 214 223 216 212 234 241 232 233 233 234 235 232 233 233 230 226 226 236 242 239 243 250 250 256 259 257 256 252 252 255 254 257 264 274 281 277 271 269 265 258 253 248 240 235 239 246 249 250 251 254 256 255 254 254 255 255 255 256 258 260 260 261 265
234 234 232 226 224 223 223 220 216 216 216 216 215 212 214 216 218 219 221 227 228 228 221 211 220 222 215 224 226 225 236 240 237 235 227 226 227 231 239 237 233 236 240 246 253 256 263 268 267 264 256 252 252 255 260 267 271 270 271 273 271 266 256 253 256 245 238 248 253 250 251 251 250 251 252 254 253 253 256 256 258 259 259 259 260 264
237 235 231 228 225 223 222 221 218 218 216 214 213 211 210 213 220 219 219 231 232 230 231 220 216 219 219 227 231 230 237 237 234 237 233 231 230 234 239 235 230 234 240 248 255 259 263 268 271 269 266 263 260 262 269 277 281 278 275 273 270 266 254 252 259 252 246 254 255 250 254 255 250 247 249 255 257 254 255 257 259 259 258 258 260 264
235 236 232 229 226 222 219 218 217 217 216 212 209 210 210 212 222 224 219 228 230 228 237 235 226 222 224 233 237 236 239 239 237 240 240 238 240 246 248 245 245 249 252 254 254 254 259 266 274 276 275 272 267 265 270 276 282 283 280 277 272 266 260 259 261 258 254 254 253 253 258 260 256 249 246 252 260 256 254 256 258 259 258 258 260 262
229 234 235 231 227 223 218 217 218 215 214 214 208 207 214 218 224 230 228 224 218 216 230 239 234 229 230 234 236 236 240 243 244 247 249 248 251 255 257 257 258 259 259 257 255 255 259 266 273 276 276 274 271 268 269 272 276 279 277 277 274 267 265 266 265 264 259 252 252 260 263 263 264 256 246 247 255 255 254 256 256 257 257 256 256 258
225 228 235 233 228 224 219 218 221 213 211 220 216 209 215 222 221 228 238 232 222 219 229 242 240 234 238 241 238 236 235 237 241 244 246 248 250 252 254 256 257 258 258 258 258 258 261 264 269 273 274 275 275 274 273 273 275 276 274 273 271 267 267 266 262 263 263 256 255 260 261 263 268 261 244 238 247 252 251 252 252 253 253 252 254 257
222 217 227 234 232 228 222 219 222 216 210 217 223 216 217 222 219 218 229 232 227 226 232 246 247 237 243 252 249 242 236 236 239 239 240 241 243 245 249 252 254 255 257 259 260 260 262 266 269 271 273 275 276 275 275 275 273 273 274 271 267 265 265 264 259 257 260 257 256 258 257 259 266 259 238 232 245 247 243 246 249 249 250 250 254 259
223 213 219 229 229 232 229 221 223 222 213 211 217 217 217 224 227 227 230 231 234 235 233 243 251 245 242 249 253 251 244 240 239 238 238 239 240 243 247 250 253 255 256 258 261 262 264 267 269 271 273 274 275 276 277 277 273 271 272 271 270 267 262 260 259 255 254 254 254 255 251 250 257 252 235 233 243 240 239 245 244 242 243 247 255 261
224 216 218 224 219 226 231 223 222 224 219 216 218 218 219 223 226 230 234 234 236 242 238 238 248 251 240 238 248 253 249 246 244 241 240 239 240 242 245 248 251 253 255 256 259 262 264 267 269 270 271 272 274 275 276 277 274 272 272 270 275 274 262 257 259 254 249 248 248 247 244 243 244 238 229 231 236 236 239 240 236 236 242 248 254 258
225 219 220 222 213 218 229 229 227 226 226 227 225 223 224 227 228 227 231 232 228 232 239 237 239 243 240 238 245 248 248 248 245 239 237 235 235 238 242 246 249 251 254 255 258 261 263 266 268 269 270 271 271 272 272 273 272 273 275 273 277 281 271 263 259 254 249 246 241 237 234 232 226 220 222 228 232 235 235 233 232 237 243 248 251 254
223 221 220 222 222 222 225 231 231 224 223 229 231 227 224 228 234 233 233 237 234 228 229 229 234 240 241 242 245 247 248 249 245 240 239 239 239 241 242 245 248 250 253 255 258 261 263 266 268 269 270 270 271 271 272 273 273 275 281 280 279 282 283 278 268 257 248 235 226 225 222 221 221 221 225 228 229 230 229 231 236 238 241 245 249 253
221 222 218 220 226 223 218 224 227 223 221 223 226 228 224 225 232 234 234 238 241 238 230 226 232 241 242 241 243 245 247 249 250 248 246 245 245 246 245 246 248 250 253 255 258 260 262 264 266 267 269 271 274 276 277 279 279 279 283 286 284 283 286 289 283 266 249 233 228 232 230 227 228 227 227 227 227 228 230 234 238 239 240 243 246 250
222 224 221 220 226 228 226 229 229 224 222 224 224 225 226 227 229 233 235 233 233 236 235 231 235 241 241 240 242 242 241 243 245 244 242 242 244 245 246 246 247 249 251 252 254 256 259 261 263 265 269 274 277 282 286 287 287 286 286 289 291 290 289 289 286 275 261 250 248 247 239 232 227 225 227 229 228 229 232 235 237 238 239 242 244 248
229 230 227 224 228 229 229 229 228 226 227 230 230 227 227 227 225 228 235 234 229 231 234 233 235 240 242 241 240 240 239 239 238 237 238 240 241 242 243 244 245 246 248 249 251 253 255 256 259 264 268 273 278 284 290 290 290 290 291 293 294 294 291 286 277 271 265 260 256 249 238 230 225 223 226 229 231 233 234 235 237 240 242 244 247 249
234 235 234 234 234 234 230 226 224 228 230 231 233 233 232 230 228 230 235 236 236 238 240 238 236 238 241 240 237 236 236 234 233 233 236 238 238 239 241 243 245 247 248 249 250 251 252 252 254 259 263 269 276 281 285 287 287 287 288 289 290 287 283 279 271 264 260 255 250 244 237 230 226 225 225 228 232 235 236 236 240 244 247 249 250 252
237 238 238 239 240 240 237 230 224 227 231 231 234 237 237 233 231 233 235 237 238 240 242 244 243 240 240 240 235 231 231 230 229 229 232 236 238 239 242 244 246 247 248 249 250 251 253 255 256 258 261 265 270 275 279 281 282 284 285 285 284 281 276 270 264 261 259 254 246 241 238 234 232 231 232 233 236 240 241 241 244 249 251 251 252 254
240 241 242 244 246 245 241 235 230 233 234 230 231 236 237 234 232 233 236 237 237 238 239 241 243 242 241 240 236 231 230 229 228 230 233 237 240 241 243 245 245 246 247 248 250 251 254 257 258 260 262 264 267 270 272 271 272 275 277 276 274 271 263 256 254 256 258 255 251 247 243 242 245 244 241 241 243 244 247 248 249 253 255 253 252 253
241 243 244 245 247 246 241 238 238 240 238 234 236 240 240 237 236 237 240 240 239 241 240 239 241 242 240 238 236 233 231 228 228 233 236 240 243 242 242 243 245 247 247 248 249 250 253 256 259 261 264 265 267 268 267 266 265 263 263 262 262 259 251 246 248 250 249 247 252 254 249 249 254 255 252 251 250 248 250 253 253 256 259 255 252 252
242 244 245 245 246 246 243 242 241 243 243 243 245 245 240 236 238 240 241 242 242 243 242 241 242 243 241 238 236 232 230 230 232 234 236 240 243 241 241 244 247 248 249 249 250 251 253 256 259 262 264 265 266 265 266 267 264 258 253 252 251 247 245 244 245 246 247 247 251 254 254 255 258 257 256 256 255 252 252 255 256 258 260 258 255 256
243 245 246 247 249 249 248 247 245 245 247 248 248 247 241 236 239 241 241 242 242 243 243 243 243 244 243 240 236 231 230 233 237 238 239 241 244 246 248 250 251 251 251 251 252 253 254 256 259 261 263 264 263 263 264 265 263 259 257 255 250 246 246 247 245 246 248 250 253 254 257 260 261 261 261 262 262 260 260 261 260 259 260 261 261 262
245 247 248 249 250 251 252 251 248 247 250 250 248 248 245 240 239 239 240 242 242 242 242 242 242 243 242 242 241 238 236 238 241 243 243 244 246 249 252 254 255 254 254 253 254 255 257 258 259 260 261 261 261 260 260 260 260 260 260 259 256 252 250 250 250 250 249 250 252 254 256 258 260 261 263 264 264 263 263 263 263 262 263 264 265 265
245 247 247 248 249 250 250 249 247 246 248 249 247 247 247 245 241 237 236 238 240 240 241 241 241 241 241 242 242 241 241 242 244 244 245 246 247 249 251 253 253 253 253 253 254 255 258 260 260 260 259 258 258 257 257 257 257 257 257 257 258 259 259 258 256 256 255 253 254 256 257 257 257 258 260 261 261 262 263 264 265 265 265 265 265 265
246 248 249 248 249 251 251 249 250 250 247 246 247 246 245 245 244 241 237 236 237 238 239 240 241 241 241 241 240 240 240 240 241 242 244 245 246 247 249 250 252 252 253 254 256 257 258 260 261 261 259 258 256 256 256 256 256 257 258 259 260 262 262 262 262 261 260 258 258 259 259 259 259 258 258 258 259 261 263 264 265 265 265 265 265 264
247 252 255 253 251 251 252 254 258 258 254 249 248 245 242 242 243 244 243 240 239 239 238 238 239 240 241 241 241 241 241 239 239 239 239 240 241 243 247 251 254 254 253 253 254 256 257 257 258 259 258 257 255 255 254 255 256 258 259 261 262 263 263 264 264 263 263 262 260 259 259 259 259 259 260 260 260 261 262 262 263 263 264 264 265 265
248 251 255 255 253 252 253 257 261 260 258 253 250 246 242 238 237 238 240 240 240 240 239 239 239 239 240 242 243 243 242 240 241 241 239 238 238 239 244 248 250 250 251 252 252 253 255 256 257 258 257 255 254 254 254 255 256 258 260 262 263 264 264 264 264 264 263 262 261 260 260 259 259 260 261 261 262 262 261 261 261 261 261 262 263 264
245 247 249 252 253 252 252 255 255 254 254 253 251 248 243 240 237 234 232 233 233 234 236 237 239 240 240 241 242 243 241 237 237 240 242 243 243 242 243 245 245 245 250 253 255 257 258 259 261 261 258 254 253 254 255 256 257 259 260 261 262 263 263 263 263 263 262 261 261 261 260 260 260 261 260 260 260 261 261 260 259 259 258 259 259 261
240 242 245 246 248 248 247 248 250 252 254 252 250 249 247 245 245 242 238 237 233 230 231 233 235 236 236 236 237 239 239 236 234 237 240 242 244 244 245 246 247 247 248 248 249 252 256 261 265 262 255 252 254 256 257 256 257 257 257 257 257 256 255 255 256 257 258 259 260 260 261 262 262 261 260 259 260 260 260 259 258 257 257 257 258 260
237 239 241 241 242 240 238 242 246 247 249 247 247 249 249 248 249 248 248 246 242 239 240 240 241 240 238 237 237 236 237 237 234 235 238 240 242 243 244 245 246 246 246 246 246 247 251 259 263 260 254 253 255 256 256 255 253 254 254 253 252 250 248 249 251 253 255 257 259 262 265 267 267 265 263 261 261 261 261 260 260 259 260 261 261 261
243 243 242 242 243 242 239 241 243 244 247 248 248 249 250 249 248 249 250 249 248 249 250 249 249 248 245 244 243 241 242 242 237 237 241 241 241 242 242 242 243 244 245 247 248 246 245 248 251 249 248 250 249 249 251 251 251 253 255 256 256 257 257 259 261 263 264 265 267 268 269 268 267 266 265 265 264 264 264 264 265 265 265 264 264 264
247 245 244 244 246 246 245 247 248 247 248 251 251 252 254 253 250 248 248 247 247 250 252 250 249 248 247 246 246 246 250 250 246 245 248 248 247 247 246 246 246 247 248 250 250 249 246 246 247 247 248 250 251 251 253 255 256 257 259 260 261 262 262 263 265 267 268 268 269 270 270 269 267 266 266 266 266 265 265 266 266 266 266 266 266 266
246 245 244 245 247 248 248 249 251 250 249 251 252 253 254 253 252 250 251 250 249 249 251 252 252 251 251 252 252 253 255 255 253 253 254 254 254 254 254 254 253 253 253 254 254 253 252 251 252 253 254 255 256 257 258 259 260 260 262 263 263 264 264 264 265 266 267 268 269 269 270 269 268 267 266 266 266 267 267 266 266 266 266 265 265 264
246 246 246 246 247 247 245 247 251 252 250 249 250 249 247 249 252 254 255 253 251 250 250 252 253 254 256 257 258 258 259 260 259 259 259 259 258 257 257 257 257 257 257 257 257 257 256 256 256 256 257 259 260 260 261 261 261 262 263 263 264 264 264 264 264 265 266 267 268 269 269 269 270 269 268 267 267 267 267 266 267 267 267 266 266 265
246 245 245 245 245 244 243 243 246 248 248 249 250 250 249 248 249 251 252 252 253 252 252 252 254 256 257 258 259 260 261 262 262 262 261 261 261 260 259 259 259 259 259 259 260 260 260 260 260 261 261 262 263 263 264 264 264 265 265 266 266 266 267 267 267 267 268 268 269 270 270 271 271 271 271 271 270 270 269 268 267 267 267 267 267 266
246 245 246 246 246 247 246 244 244 245 246 247 249 250 251 250 249 249 251 253 254 254 254 254 256 257 258 259 260 261 262 263 263 263 262 262 261 261 260 260 260 260 261 261 261 261 262 262 262 263 263 264 264 264 265 265 266 266 267 267 268 268 268 268 269 269 269 270 270 271 271 272 272 272 273 273 273 272 272 271 270 269 269 267 265 265
245 245 247 248 249 250 251 250 249 248 248 248 248 249 250 251 251 252 253 254 255 255 255 256 256 258 259 260 260 261 262 262 263 263 263 263 262 262 262 261 261 261 261 261 261 261 262 262 262 263 263 264 264 264 265 265 266 266 266 267 267 267 268 268 269 269 270 270 270 270 271 271 271 271 272 272 272 272 271 271 271 271 269 267 265 265
249 247 247 248 250 251 252 252 252 252 251 251 251 251 251 252 252 253 255 256 256 256 257 257 257 257 258 259 259 260 260 261 262 262 262 262 262 262 262 262 262 262 262 262 262 262 262 262 262 262 263 263 263 264 264 265 265 265 266 266 267 267 267 268 268 269 269 269 269 269 269 270 270 270 270 270 269 269 270 271 271 272 271 270 269 269
252 249 245 245 247 249 250 251 252 252 252 252 252 253 254 254 255 256 256 257 257 258 258 258 258 258 259 259 260 260 260 260 260 261 261 261 261 262 262 262 262 262 262 262 262 262 262 262 263 263 263 263 263 263 264 264 264 265 265 266 266 266 266 267 267 267 267 268 268 268 268 269 269 269 269 268 268 268 269 271 272 272 271 270 269 269
249 250 245 243 245 247 248 250 251 252 252 252 252 253 254 255 256 257 257 258 258 259 259 259 260 260 260 260 260 260 260 261 261 261 261 261 261 261 261 261 262 262 262 262 262 262 262 262 262 263 263 263 263 264 264 264 265 265 265 265 265 265 265 265 265 265 265 266 267 267 268 268 268 268 268 268 268 270 272 273 273 272 271 269 267 267
246 245 242 241 245 248 249 250 251 252 252 253 253 254 254 255 255 256 256 257 257 258 258 259 259 260 261 262 262 263 263 264 264 264 264 264 265 265 264 264 265 265 265 265 265 265 265 265 265 265 266 266 266 266 266 267 267 267 268 268 268 267 267 267 267 267 267 267 268 268 269 269 269 269 270 270 271 273 274 274 273 272 270 268 267 266
241 239 238 235 238 245 248 250 253 254 253 254 255 255 255 255 255 256 257 257 258 258 258 259 259 260 260 261 262 262 263 264 263 263 263 264 265 265 265 265 266 266 267 267 267 267 268 268 268 268 268 269 269 269 269 269 269 269 269 269 269 268 268 268 268 268 268 268 268 268 268 269 269 270 271 272 272 272 272 271 270 268 267 266 265 263
Height
5728 5729 5730 5731 5732 5734 5735 5737 5738 5738 5740 5742 5745 5748 5750 5754 5754 5758 5760 5753 5750 5757 5759 5760 5763 5764 5766 5766 5762 5762 5765 5766 5767 5768 5768 5770 5770 5770 5771 5772 5773 5773 5774 5774 5774 5774 5772 5770 5769 5769 5771 5770 5768 5766 5769 5771 5771 5771 5771 5770 5769 5771 5773 5775 5775 5776 5776 5777 5778 5779 5780 5781 5782 5783 5784 5785 5786 5786 5787 5788 5788 5788 5788 5788 5788 5788
5727 5727 5728 5730 5730 5731 5732 5734 5734 5735 5737 5740 5742 5745 5748 5751 5753 5757 5757 5748 5747 5755 5757 5758 5761 5761 5764 5765 5760 5759 5762 5764 5765 5766 5766 5767 5767 5768 5769 5770 5771 5772 5772 5772 5772 5770 5766 5763 5763 5766 5769 5769 5766 5765 5767 5768 5768 5769 5772 5772 5771 5770 5772 5774 5775 5775 5775 5776 5777 5778 5779 5780 5781 5782 5783 5784 5785 5786 5786 5786 5787 5787 5787 5787 5787 5787
5725 5725 5727 5727 5727 5729 5731 5732 5733 5735 5738 5739 5741 5743 5745 5748 5752 5754 5750 5745 5747 5753 5756 5757 5757 5758 5761 5762 5757 5757 5760 5762 5762 5763 5763 5764 5765 5766 5767 5768 5769 5770 5770 5770 5768 5764 5759 5759 5762 5766 5769 5768 5764 5764 5766 5768 5769 5770 5772 5772 5771 5770 5771 5773 5773 5773 5774 5775 5776 5777 5778 5779 5780 5781 5782 5783 5783 5784 5785 5785 5785 5785 5785 5786 5786 5786
5723 5724 5725 5725 5725 5728 5729 5730 5732 5733 5735 5737 5739 5741 5744 5746 5750 5750 5746 5745 5747 5750 5754 5754 5753 5755 5756 5755 5754 5756 5758 5759 5760 5761 5761 5762 5763 5763 5764 5765 5767 5768 5768 5766 5762 5757 5755 5759 5763 5766 5768 5767 5764 5763 5766 5769 5769 5768 5769 5769 5769 5769 5769 5770 5771 5772 5773 5774 5775 5776 5777 5779 5780 5780 5781 5782 5782 5783 5783 5783 5784 5784 5784 5784 5785 5785
5722 5722 5722 5723 5725 5727 5728 5729 5730 5732 5734 5735 5737 5739 5742 5744 5747 5747 5743 5743 5745 5747 5751 5751 5751 5751 5751 5752 5753 5754 5756 5756 5757 5758 5759 5760 5760 5760 5762 5763 5765 5766 5765 5760 5754 5753 5757 5761 5764 5765 5767 5767 5764 5763 5765 5766 5766 5765 5765 5767 5768 5768 5768 5769 5769 5770 5771 5772 5774 5775 5777 5778 5779 5779 5780 5780 5781 5781 5781 5782 5782 5783 5783 5783 5783 5783
5719 5719 5720 5722 5724 5725 5726 5727 5729 5730 5732 5733 5735 5737 5739 5741 5744 5743 5740 5741 5744 5746 5748 5748 5749 5749 5748 5749 5751 5752 5753 5753 5754 5755 5756 5756 5756 5758 5760 5761 5763 5763 5760 5753 5750 5754 5759 5761 5763 5764 5766 5766 5762 5760 5763 5763 5762 5761 5761 5763 5766 5766 5766 5766 5767 5769 5770 5771 5773 5774 5775 5777 5777 5778 5778 5779 5779 5779 5780 5780 5780 5781 5781 5781 5781 5781
5717 5718 5720 5721 5722 5723 5724 5726 5727 5729 5730 5732 5734 5735 5736 5737 5739 5739 5738 5741 5744 5744 5744 5745 5747 5748 5746 5746 5748 5749 5750 5750 5752 5752 5752 5753 5754 5755 5757 5758 5760 5758 5753 5749 5751 5755 5758 5759 5762 5764 5764 5764 5760 5758 5760 5761 5758 5757 5758 5760 5762 5763 5763 5764 5765 5768 5770 5770 5771 5772 5774 5775 5776 5776 5777 5777 5777 5778 5778 5778 5779 5779 5779 5780 5780 5780
5715 5717 5719 5719 5721 5722 5723 5724 5726 5727 5729 5730 5731 5732 5734 5734 5735 5737 5738 5740 5741 5741 5741 5742 5745 5747 5745 5744 5745 5746 5747 5748 5748 5749 5750 5751 5752 5753 5754 5755 5756 5751 5747 5749 5752 5755 5756 5757 5760 5762 5762 5761 5759 5757 5758 5757 5755 5755 5757 5760 5761 5762 5763 5764 5765 5767 5769 5770 5770 5772 5773 5774 5774 5775 5775 5775 5776 5776 5776 5777 5777 5777 5778 5778 5779 5779
5714 5716 5717 5718 5719 5720 5722 5723 5724 5725 5727 5727 5728 5730 5732 5733 5734 5735 5737 5738 5739 5738 5739 5741 5742 5744 5744 5743 5743 5743 5744 5745 5745 5745 5747 5748 5749 5751 5752 5753 5751 5745 5745 5749 5752 5754 5755 5755 5758 5761 5761 5760 5759 5757 5756 5756 5756 5758 5760 5762 5763 5763 5763 5764 5766 5767 5768 5769 5769 5771 5772 5773 5773 5773 5773 5774 5774 5774 5774 5775 5775 5776 5776 5777 5778 5778
5712 5713 5714 5716 5718 5719 5720 5720 5722 5724 5724 5725 5727 5728 5730 5731 5732 5734 5735 5736 5736 5736 5738 5739 5740 5742 5743 5741 5740 5742 5742 5743 5743 5742 5743 5744 5746 5747 5749 5750 5746 5742 5745 5749 5751 5753 5753 5753 5756 5759 5760 5759 5758 5758 5758 5758 5759 5760 5762 5763 5764 5764 5765 5765 5765 5766 5766 5767 5768 5769 5770 5771 5771 5771 5772 5772 5772 5772 5773 5773 5774 5774 5775 5776 5776 5776
5710 5711 5713 5715 5716 5716 5717 5718 5720 5722 5723 5724 5726 5727 5728 5730 5731 5732 5733 5734 5734 5734 5735 5737 5738 5740 5742 5740 5739 5741 5740 5740 5740 5740 5741 5742 5743 5744 5745 5744 5741 5741 5746 5749 5749 5750 5750 5752 5754 5756 5757 5757 5757 5757 5758 5759 5759 5760 5762 5763 5762 5762 5763 5762 5762 5763 5763 5764 5765 5766 5767 5768 5768 5769 5769 5770 5770 5770 5771 5771 5772 5773 5774 5775 5775 5775
5709 5710 5712 5713 5713 5714 5716 5717 5719 5720 5721 5723 5725 5726 5727 5729 5729 5731 5732 5731 5731 5732 5734 5736 5737 5738 5740 5738 5737 5737 5736 5737 5738 5739 5741 5742 5742 5743 5741 5740 5740 5742 5747 5748 5748 5748 5748 5750 5752 5753 5755 5755 5756 5756 5756 5757 5758 5758 5760 5761 5760 5760 5760 5760 5760 5761 5762 5763 5763 5764 5764 5765 5766 5766 5766 5767 5768 5768 5768 5770 5771 5772 5773 5773 5773 5773
5707 5708 5710 5711 5712 5713 5715 5716 5718 5719 5720 5722 5723 5725 5726 5727 5727 5728 5729 5729 5730 5731 5732 5734 5735 5736 5736 5734 5732 5733 5733 5735 5737 5738 5741 5742 5742 5742 5741 5740 5741 5743 5745 5745 5746 5747 5747 5748 5750 5751 5752 5753 5754 5755 5755 5756 5757 5758 5758 5759 5759 5758 5759 5759 5759 5759 5761 5761 5761 5761 5762 5763 5763 5764 5764 5765 5765 5766 5767 5768 5769 5770 5771 5771 5771 5771
5705 5706 5707 5709 5710 5712 5713 5715 5716 5717 5719 5720 5722 5723 5724 5725 5725 5726 5727 5728 5729 5731 5730 5731 5732 5733 5734 5731 5729 5732 5734 5735 5736 5736 5738 5739 5740 5741 5740 5740 5741 5742 5743 5743 5744 5745 5745 5746 5747 5748 5750 5751 5753 5754 5754 5755 5756 5757 5757 5757 5757 5757 5758 5759 5758 5758 5758 5759 5759 5759 5760 5761 5761 5762 5762 5763 5763 5764 5765 5766 5767 5768 5768 5769 5769 5770
5702 5703 5704 5707 5708 5710 5711 5713 5714 5716 5717 5719 5720 5721 5722 5723 5724 5724 5726 5727 5728 5729 5729 5728 5729 5731 5731 5729 5728 5731 5733 5732 5733 5734 5734 5734 5735 5735 5734 5734 5736 5738 5740 5742 5743 5743 5744 5744 5745 5746 5748 5749 5750 5751 5752 5752 5753 5754 5755 5755 5756 5756 5756 5757 5756 5756 5756 5757 5758 5758 5758 5758 5759 5760 5760 5761 5762 5762 5763 5763 5765 5766 5766 5767 5768 5768
5700 5701 5703 5704 5706 5707 5709 5711 5712 5713 5716 5717 5718 5719 5720 5722 5722 5723 5723 5724 5725 5726 5726 5726 5727 5728 5728 5727 5728 5730 5730 5730 5730 5730 5730 5730 5730 5729 5729 5729 5731 5733 5736 5739 5740 5741 5742 5743 5743 5744 5745 5746 5747 5748 5749 5749 5750 5751 5752 5752 5753 5753 5754 5753 5753 5753 5753 5755 5756 5755 5755 5755 5756 5757 5758 5759 5760 5760 5761 5761 5762 5763 5764 5765 5765 5766
5698 5700 5701 5701 5702 5704 5707 5708 5709 5711 5714 5715 5715 5717 5719 5720 5721 5721 5721 5721 5722 5724 5724 5724 5725 5725 5724 5724 5726 5727 5728 5729 5728 5729 5729 5729 5729 5728 5727 5728 5729 5731 5734 5735 5737 5739 5740 5741 5741 5742 5743 5743 5744 5746 5747 5748 5748 5748 5749 5750 5749 5750 5750 5749 5749 5748 5749 5751 5752 5752 5752 5752 5754 5755 5756 5757 5758 5758 5759 5759 5760 5760 5761 5762 5763 5763
5695 5698 5698 5698 5700 5702 5704 5705 5706 5708 5710 5711 5713 5715 5717 5717 5717 5718 5719 5719 5720 5721 5722 5722 5723 5723 5724 5722 5722 5723 5725 5725 5725 5726 5727 5727 5728 5727 5727 5728 5728 5730 5731 5733 5734 5735 5737 5738 5739 5739 5740 5740 5741 5743 5744 5746 5746 5746 5747 5747 5747 5746 5746 5746 5745 5745 5746 5747 5748 5749 5749 5750 5751 5752 5754 5755 5756 5756 5757 5757 5758 5758 5759 5759 5760 5761
5691 5694 5695 5695 5698 5699 5700 5702 5703 5705 5707 5709 5710 5711 5713 5714 5715 5715 5716 5717 5718 5719 5721 5721 5721 5722 5723 5721 5719 5719 5720 5720 5721 5723 5724 5724 5726 5726 5727 5727 5727 5728 5730 5731 5731 5732 5733 5734 5735 5736 5737 5737 5738 5739 5741 5742 5743 5743 5744 5744 5743 5741 5742 5743 5742 5742 5742 5743 5744 5745 5746 5747 5748 5749 5751 5753 5754 5754 5755 5755 5756 5756 5756 5757 5757 5758
5688 5691 5692 5692 5696 5696 5696 5698 5700 5702 5704 5706 5706 5708 5709 5711 5712 5713 5713 5715 5716 5717 5718 5719 5719 5719 5719 5718 5718 5717 5717 5717 5719 5719 5720 5722 5723 5724 5725 5726 5726 5727 5728 5728 5729 5729 5730 5731 5732 5733 5734 5734 5736 5737 5737 5738 5739 5740 5740 5740 5739 5737 5738 5739 5740 5739 5739 5740 5741 5742 5744 5745 5746 5747 5749 5751 5751 5752 5753 5753 5754 5754 5754 5754 5754 5755
5685 5688 5688 5689 5692 5692 5693 5695 5698 5700 5702 5703 5704 5706 5707 5708 5709 5710 5710 5712 5714 5715 5715 5717 5718 5716 5715 5716 5716 5715 5715 5716 5717 5717 5718 5719 5720 5721 5722 5723 5724 5725 5725 5726 5726 5727 5727 5728 5729 5730 5730 5731 5732 5734 5735 5735 5736 5736 5737 5737 5737 5735 5736 5736 5736 5736 5737 5737 5738 5739 5741 5742 5744 5745 5747 5748 5749 5749 5750 5751 5751 5752 5752 5751 5752 5752
5682 5683 5685 5687 5688 5690 5692 5694 5695 5697 5699 5700 5701 5703 5704 5706 5707 5707 5708 5709 5710 5711 5712 5714 5714 5712 5712 5713 5713 5713 5713 5713 5713 5714 5715 5716 5716 5717 5719 5720 5721 5722 5723 5723 5724 5724 5725 5725 5726 5726 5727 5727 5728 5730 5732 5732 5732 5733 5733 5734 5734 5734 5734 5734 5734 5734 5735 5735 5736 5737 5739 5740 5742 5743 5744 5745 5746 5746 5747 5748 5748 5749 5749 5749 5749 5749
5679 5680 5682 5684 5685 5687 5688 5689 5690 5693 5695 5697 5698 5700 5701 5703 5703 5704 5706 5706 5706 5707 5708 5710 5710 5708 5708 5710 5710 5711 5711 5710 5710 5711 5712 5712 5713 5714 5715 5717 5718 5719 5720 5721 5722 5722 5723 5723 5724 5723 5723 5723 5724 5726 5727 5728 5729 5730 5730 5730 5731 5731 5732 5732 5732 5733 5734 5735 5736 5736 5737 5739 5740 5741 5741 5742 5743 5744 5745 5745 5746 5746 5746 5746 5746 5747
5677 5677 5679 5681 5681 5683 5684 5686 5688 5690 5692 5693 5694 5697 5698 5699 5700 5701 5702 5703 5703 5704 5705 5706 5706 5704 5705 5707 5708 5708 5708 5707 5708 5709 5710 5711 5711 5712 5713 5714 5716 5717 5718 5719 5720 5720 5721 5721 5721 5721 5721 5721 5721 5721 5723 5724 5725 5726 5727 5727 5727 5728 5729 5730 5731 5732 5733 5735 5735 5735 5736 5737 5737 5739 5739 5740 5741 5742 5743 5743 5743 5743 5743 5744 5744 5744
5674 5674 5676 5677 5678 5679 5681 5683 5685 5688 5689 5690 5692 5693 5694 5695 5697 5698 5698 5699 5700 5701 5702 5703 5703 5701 5702 5704 5706 5705 5705 5705 5706 5707 5708 5709 5709 5710 5711 5712 5713 5714 5715 5716 5717 5718 5718 5718 5718 5719 5719 5719 5718 5718 5720 5721 5722 5723 5724 5725 5726 5726 5727 5729 5730 5730 5731 5732 5733 5733 5734 5734 5735 5737 5738 5738 5739 5740 5741 5741 5741 5741 5741 5741 5742 5742
5669 5670 5672 5673 5674 5675 5677 5678 5681 5683 5684 5686 5688 5689 5690 5692 5694 5694 5694 5695 5697 5698 5698 5699 5699 5698 5698 5700 5702 5703 5703 5703 5704 5704 5705 5706 5707 5707 5708 5709 5711 5712 5713 5713 5714 5715 5715 5715 5716 5717 5717 5718 5718 5717 5718 5719 5720 5721 5722 5723 5724 5725 5726 5727 5728 5729 5729 5730 5730 5731 5731 5731 5732 5734 5735 5736 5736 5737 5737 5737 5738 5739 5739 5740 5740 5740
5666 5667 5668 5670 5671 5672 5674 5676 5677 5677 5679 5683 5684 5684 5686 5688 5689 5690 5691 5692 5693 5694 5695 5696 5696 5695 5696 5697 5699 5699 5699 5700 5701 5702 5703 5703 5704 5705 5706 5707 5708 5709 5710 5711 5711 5712 5712 5713 5714 5715 5716 5716 5717 5717 5717 5717 5718 5719 5720 5721 5723 5724 5725 5726 5727 5727 5728 5729 5729 5730 5730 5730 5731 5732 5733 5734 5734 5735 5734 5735 5736 5737 5737 5738 5738 5738
5663 5664 5665 5666 5667 5668 5671 5672 5673 5674 5676 5678 5679 5679 5681 5683 5685 5686 5687 5688 5689 5690 5691 5692 5691 5692 5693 5694 5695 5696 5696 5696 5697 5699 5700 5700 5701 5703 5704 5705 5705 5706 5707 5708 5709 5709 5710 5711 5711 5712 5713 5714 5715 5716 5716 5716 5717 5717 5718 5719 5720 5722 5723 5724 5725 5726 5727 5728 5729 5729 5730 5730 5730 5731 5732 5733 5733 5733 5733 5733 5734 5735 5735 5735 5736 5736
5660 5661 5662 5663 5664 5665 5667 5668 5670 5672 5673 5673 5673 5674 5677 5679 5681 5682 5682 5684 5686 5686 5687 5688 5688 5688 5689 5691 5692 5693 5694 5694 5695 5697 5698 5698 5699 5700 5700 5701 5702 5703 5704 5705 5706 5707 5708 5709 5709 5710 5711 5712 5712 5713 5713 5713 5714 5715 5716 5717 5718 5719 5721 5722 5723 5724 5725 5726 5727 5727 5728 5729 5729 5729 5730 5731 5731 5731 5731 5731 5732 5733 5732 5731 5732 5733
5658 5658 5659 5660 5661 5662 5663 5665 5667 5668 5668 5668 5669 5670 5673 5675 5676 5677 5679 5680 5682 5682 5683 5685 5686 5685 5685 5687 5689 5691 5692 5692 5693 5694 5696 5696 5696 5697 5697 5698 5699 5701 5702 5703 5704 5705 5706 5706 5707 5708 5708 5709 5709 5710 5710 5711 5711 5712 5713 5714 5716 5717 5718 5719 5720 5721 5722 5724 5725 5726 5726 5726 5726 5727 5728 5728 5728 5728 5729 5729 5730 5731 5730 5730 5730 5730
5654 5654 5655 5657 5657 5658 5660 5661 5662 5663 5663 5663 5664 5666 5669 5671 5672 5674 5676 5677 5678 5678 5679 5680 5681 5681 5682 5684 5685 5687 5688 5689 5690 5692 5694 5695 5694 5694 5694 5695 5697 5698 5700 5700 5701 5702 5703 5703 5704 5705 5706 5707 5707 5707 5708 5708 5708 5709 5710 5711 5713 5713 5715 5716 5717 5718 5719 5720 5722 5723 5723 5723 5723 5724 5725 5725 5726 5725 5725 5726 5727 5727 5726 5726 5727 5727
5650 5651 5652 5653 5654 5655 5656 5657 5657 5658 5658 5658 5659 5662 5664 5666 5667 5669 5672 5673 5674 5675 5675 5676 5677 5678 5679 5680 5681 5683 5686 5687 5688 5690 5692 5692 5691 5691 5692 5693 5694 5696 5697 5697 5697 5698 5699 5700 5701 5702 5703 5704 5704 5704 5705 5705 5706 5706 5707 5708 5709 5710 5711 5712 5713 5714 5716 5717 5718 5719 5720 5720 5720 5721 5721 5722 5723 5722 5722 5722 5723 5723 5722 5722 5722 5722
5647 5648 5649 5650 5651 5652 5653 5653 5654 5653 5653 5654 5655 5657 5659 5661 5663 5664 5666 5668 5669 5670 5671 5671 5672 5673 5675 5676 5677 5680 5683 5684 5685 5687 5688 5688 5689 5689 5689 5690 5690 5692 5693 5693 5693 5695 5696 5696 5697 5698 5699 5700 5701 5701 5702 5702 5702 5703 5704 5704 5705 5706 5708 5709 5709 5710 5711 5712 5713 5714 5715 5716 5717 5717 5717 5718 5719 5719 5718 5719 5719 5718 5718 5718 5717 5718
5644 5645 5647 5647 5648 5649 5649 5649 5650 5650 5650 5652 5653 5653 5654 5655 5658 5659 5661 5662 5664 5665 5666 5667 5668 5669 5671 5672 5674 5677 5678 5679 5682 5684 5684 5684 5684 5685 5685 5685 5687 5688 5689 5689 5690 5691 5692 5692 5693 5693 5694 5695 5697 5697 5698 5698 5699 5699 5700 5701 5702 5702 5703 5704 5705 5705 5706 5706 5707 5708 5709 5710 5711 5712 5712 5713 5714 5714 5715 5715 5715 5713 5713 5713 5713 5713
5641 5642 5643 5643 5644 5645 5645 5646 5646 5646 5648 5649 5649 5649 5649 5650 5653 5655 5656 5657 5659 5660 5662 5663 5664 5665 5666 5668 5670 5672 5673 5674 5677 5679 5680 5680 5680 5680 5680 5682 5684 5685 5685 5686 5686 5687 5688 5688 5688 5689 5690 5690 5691 5692 5693 5694 5695 5695 5696 5697 5697 5697 5698 5699 5700 5700 5700 5701 5701 5702 5703 5704 5704 5705 5706 5707 5708 5709 5710 5711 5710 5709 5709 5708 5708 5708
5637 5639 5640 5639 5640 5641 5642 5643 5643 5643 5645 5645 5645 5646 5646 5647 5649 5650 5651 5653 5654 5656 5657 5659 5659 5660 5662 5664 5665 5666 5668 5670 5672 5674 5676 5677 5677 5677 5677 5679 5680 5680 5680 5681 5682 5682 5682 5683 5684 5685 5685 5685 5686 5686 5688 5689 5690 5691 5691 5692 5692 5692 5692 5692 5693 5694 5694 5694 5695 5696 5696 5697 5698 5699 5701 5701 5702 5703 5704 5704 5704 5704 5704 5704 5703 5703
5634 5635 5636 5636 5636 5638 5639 5639 5639 5640 5641 5642 5642 5643 5643 5644 5645 5646 5647 5648 5649 5651 5653 5654 5655 5656 5657 5659 5661 5662 5663 5665 5667 5669 5671 5673 5673 5673 5674 5676 5677 5677 5677 5678 5678 5678 5678 5679 5680 5681 5681 5680 5681 5682 5683 5683 5684 5685 5686 5686 5686 5686 5686 5686 5687 5687 5687 5688 5689 5689 5690 5690 5692 5692 5693 5694 5695 5696 5697 5697 5698 5698 5698 5698 5698 5697
5630 5631 5632 5632 5633 5634 5636 5636 5636 5637 5637 5638 5639 5640 5640 5641 5641 5642 5643 5644 5645 5647 5648 5649 5650 5651 5652 5654 5656 5657 5658 5659 5661 5663 5665 5667 5668 5669 5670 5671 5672 5673 5673 5674 5675 5675 5675 5675 5676 5676 5675 5675 5676 5677 5677 5677 5678 5679 5680 5680 5681 5681 5680 5681 5681 5681 5682 5682 5683 5684 5684 5685 5686 5686 5687 5688 5688 5690 5691 5691 5691 5692 5692 5693 5692 5692
5626 5627 5628 5628 5629 5631 5632 5633 5633 5633 5633 5634 5636 5636 5637 5638 5638 5639 5640 5640 5641 5643 5644 5645 5646 5647 5648 5649 5650 5652 5653 5653 5656 5659 5661 5662 5663 5664 5665 5666 5666 5667 5667 5668 5669 5670 5671 5672 5672 5672 5672 5672 5672 5672 5672 5672 5672 5673 5674 5675 5676 5676 5676 5676 5676 5677 5677 5678 5678 5679 5680 5680 5681 5681 5681 5682 5682 5684 5685 5685 5685 5686 5686 5686 5686 5686
5622 5623 5624 5625 5626 5627 5628 5629 5630 5629 5630 5631 5632 5632 5633 5633 5635 5636 5636 5636 5638 5640 5640 5641 5642 5643 5645 5645 5645 5647 5648 5648 5652 5656 5656 5656 5658 5658 5659 5660 5660 5661 5662 5662 5664 5665 5667 5668 5668 5668 5668 5667 5667 5668 5667 5667 5667 5667 5668 5669 5670 5671 5671 5671 5672 5672 5672 5672 5672 5673 5674 5675 5675 5675 5676 5676 5676 5678 5679 5679 5679 5679 5680 5680 5680 5680
5617 5618 5620 5621 5622 5622 5624 5624 5624 5624 5625 5627 5628 5628 5629 5630 5631 5632 5632 5633 5636 5636 5636 5637 5638 5639 5640 5640 5641 5644 5645 5645 5648 5651 5651 5651 5652 5653 5654 5655 5655 5656 5656 5657 5658 5659 5660 5660 5660 5661 5661 5661 5661 5661 5661 5661 5661 5661 5662 5662 5664 5665 5665 5665 5665 5665 5665 5665 5665 5666 5666 5668 5668 5669 5669 5669 5669 5670 5672 5672 5672 5672 5673 5673 5673 5673
5612 5614 5616 5617 5617 5617 5619 5620 5619 5619 5621 5622 5623 5624 5625 5625 5625 5627 5628 5630 5631 5631 5632 5633 5634 5635 5635 5636 5638 5640 5640 5641 5643 5645 5645 5646 5647 5647 5648 5649 5650 5650 5651 5651 5652 5653 5653 5653 5653 5653 5653 5654 5654 5654 5654 5655 5655 5655 5655 5655 5657 5658 5658 5658 5658 5658 5658 5659 5658 5658 5659 5659 5660 5661 5662 5662 5661 5662 5664 5665 5665 5665 5666 5666 5666 5666
5608 5611 5612 5612 5611 5613 5615 5615 5613 5614 5616 5617 5618 5620 5620 5621 5621 5623 5624 5625 5626 5627 5628 5629 5629 5630 5631 5632 5634 5635 5635 5636 5638 5639 5639 5640 5641 5642 5643 5643 5644 5644 5644 5645 5645 5646 5646 5646 5647 5646 5646 5646 5646 5646 5647 5647 5647 5647 5648 5648 5649 5650 5650 5650 5651 5651 5651 5651 5651 5651 5651 5651 5652 5652 5653 5654 5654 5655 5656 5656 5657 5657 5658 5658 5658 5659
5605 5607 5607 5606 5607 5609 5609 5609 5609 5610 5612 5612 5613 5615 5616 5617 5618 5618 5618 5619 5621 5622 5624 5624 5625 5626 5626 5627 5629 5629 5630 5630 5632 5632 5633 5634 5634 5635 5636 5637 5637 5638 5638 5638 5639 5639 5639 5639 5639 5639 5639 5639 5639 5639 5639 5639 5639 5640 5639 5639 5640 5642 5641 5641 5642 5642 5643 5643 5642 5642 5643 5643 5643 5643 5644 5645 5645 5646 5647 5648 5649 5650 5650 5651 5651 5651
5600 5601 5601 5602 5603 5604 5603 5604 5605 5607 5607 5608 5609 5610 5611 5611 5612 5613 5614 5615 5616 5617 5618 5620 5620 5620 5620 5622 5623 5623 5624 5624 5625 5626 5627 5627 5628 5628 5629 5630 5630 5631 5631 5631 5632 5632 5632 5632 5632 5632 5632 5633 5633 5632 5632 5632 5632 5632 5631 5631 5631 5632 5632 5632 5632 5633 5634 5634 5634 5634 5634 5634 5634 5634 5635 5636 5636 5637 5638 5638 5640 5641 5642 5642 5643 5643
5595 5595 5596 5597 5598 5598 5598 5599 5601 5602 5603 5604 5604 5605 5605 5606 5607 5608 5609 5610 5611 5611 5612 5614 5614 5614 5615 5616 5616 5617 5617 5618 5618 5619 5619 5620 5620 5621 5621 5622 5623 5623 5624 5624 5625 5625 5625 5625 5625 5625 5625 5626 5626 5626 5625 5625 5625 5624 5624 5623 5623 5624 5624 5624 5624 5625 5625 5625 5625 5625 5626 5626 5626 5626 5627 5628 5628 5628 5629 5630 5631 5632 5633 5634 5635 5635
5590 5591 5592 5593 5593 5592 5593 5594 5595 5596 5597 5598 5599 5599 5600 5601 5602 5602 5603 5604 5605 5605 5606 5607 5608 5608 5609 5609 5610 5611 5611 5611 5612 5612 5613 5613 5613 5614 5614 5615 5615 5616 5616 5616 5617 5618 5618 5617 5617 5618 5618 5618 5618 5617 5617 5617 5617 5616 5616 5616 5616 5616 5616 5616 5616 5616 5617 5617 5617 5617 5617 5617 5617 5618 5618 5619 5620 5620 5621 5622 5623 5623 5625 5626 5625 5626
5586 5587 5588 5589 5588 5587 5587 5589 5590 5590 5591 5592 5593 5594 5594 5595 5596 5597 5597 5598 5599 5599 5600 5601 5601 5602 5602 5603 5603 5604 5605 5605 5606 5606 5606 5606 5607 5607 5608 5608 5608 5608 5609 5609 5609 5610 5610 5610 5610 5610 5610 5609 5609 5609 5608 5608 5608 5607 5607 5607 5607 5607 5607 5607 5607 5608 5608 5608 5608 5608 5609 5609 5609 5609 5610 5610 5611 5612 5613 5614 5614 5615 5617 5618 5617 5618
5583 5584 5585 5584 5583 5583 5583 5584 5585 5585 5585 5586 5588 5589 5589 5590 5591 5591 5592 5592 5593 5594 5594 5595 5595 5596 5596 5596 5597 5597 5598 5599 5599 5599 5599 5599 5600 5600 5601 5601 5601 5601 5601 5602 5602 5602 5602 5602 5602 5602 5602 5601 5601 5600 5600 5600 5599 5598 5598 5598 5598 5598 5598 5598 5598 5599 5599 5599 5599 5600 5600 5599 5600 5600 5601 5601 5602 5602 5603 5604 5604 5605 5607 5608 5608 5609
5580 5581 5581 5581 5581 5580 5580 5580 5580 5580 5580 5581 5582 5584 5585 5585 5585 5586 5586 5587 5587 5588 5588 5588 5589 5590 5590 5590 5590 5591 5591 5592 5592 5592 5592 5592 5593 5593 5594 5594 5594 5594 5594 5594 5594 5594 5594 5594 5594 5594 5594 5593 5593 5592 5591 5591 5590 5589 5589 5588 5588 5588 5588 5588 5588 5589 5590 5590 5590 5590 5590 5590 5590 5590 5591 5591 5592 5592 5592 5593 5593 5594 5595 5595 5596 5598
5577 5578 5578 5578 5578 5577 5577 5577 5576 5576 5576 5576 5578 5579 5579 5580 5580 5580 5581 5582 5582 5583 5583 5583 5584 5584 5585 5585 5585 5585 5585 5586 5586 5586 5586 5586 5586 5587 5587 5587 5587 5587 5587 5587 5587 5587 5586 5586 5586 5586 5585 5585 5584 5583 5583 5582 5581 5581 5580 5579 5578 5578 5578 5578 5579 5579 5580 5580 5580 5580 5580 5580 5580 5580 5580 5581 5581 5581 5582 5582 5582 5583 5584 5584 5585 5588